COSMOS 1275 DEB, 29295

Orbit data source: Space-Track

COSMOS 1275 DEB, 29295 is space debris in LEO originally from a launch on Thu, 04 Jun 1981 UTC launched from the Plesetsk Missile And Space Complex (PKMTR). Debris objects in space refer to the collection of defunct objects orbiting the Earth. Examples of debris include non-operational satellites, rocket bodies, and fragments generated from explosions, collisions, or faulty payload assembly.

Loading next visibility...
Identifier
29295, 1981-053MS
Orbit
LEO
Country
Flag of CISCIS
Related business
Manufacturer
Unknown
Mission
Spacecraft
Bus & Motor
Unknown
Mass
Unknown
Launch date (UTC)
1981-06-04 (45 years ago)
Launch vehicle
Unknown
Launch site
Plesetsk Missile And Space Complex (PKMTR)
Object type
Payload
Rocket body
Debris
Shape & HBR
Unknown shape, 0.1 m
Radar Cross Section
Small (<0.1 m²)

Expand to show TLE details & history
Last TLE update: 1 day ago

TLE from 1 day ago
0 COSMOS 1275 DEB
1 29295U 81053MS  26254.26802407  .00000624  00000-0  60214-3 0  9990
2 29295  82.9551  79.6800 0110520  12.6641 108.2043 13.75838928703897
Epoch: 2026-09-11T06:25Z
TLE epoch observation values (Epoch: 2026-09-11T06:25:57.279Z)
Latitude
57.34524°
Longitude
161.83771°
Altitude
1,014.523 km
Speed
7.337 km/s
True Right ascension
16h 34m 28s
True Declination
57° 11' 39"
Sunlit
Object was in daylight at epoch
Visualization orbit readout
Latitude
Unknown
Longitude
Unknown
Altitude
Unknown
Speed
Unknown
Apparent Right ascension
Unknown
Apparent Declination
Unknown
Sunlit
N/A
Visualization observer readout
Local Sidereal Time
01:58:52
Azimuth
Unknown
Elevation
Unknown
Doppler factor
Unknown
Orbital elements
Apogee altitude
1,057.105 km
Perigee altitude
894.553 km
Semi-major axis
7,353.966 km
Eccentricity
0.01105
Inclination
82.9551°
RAAN
79.68°
Arg. of periapsis
12.6641°
True anomaly
109.40212°
Mean anomaly
108.2043°
Eccentric anomaly
108.80374°
Mean motion
3.4416 °/min
Orbital period
104.6 mins
BSTAR
0.00060214
Loading maneuver chart data...
Computing Atmospheric mass density...
Loading historical data...
Loading historical data...
Loading historical data...
Loading historical data...
Loading historical data...
Loading historical data...
Loading historical data...

Documentation

Showing up to 5 results
|